Year,Month,Day,Hour,Minute,Value (Times are PST for temperature in C)
2016,06,16,00,00,11.30
2016,06,16,00,01,11.30
2016,06,16,00,02,11.30
2016,06,16,00,03,11.30
2016,06,16,00,04,11.30
2016,06,16,00,05,11.30
2016,06,16,00,06,11.30
2016,06,16,00,07,11.20
2016,06,16,00,08,11.20
2016,06,16,00,09,11.20
2016,06,16,00,10,11.10
2016,06,16,00,11,11.10
2016,06,16,00,12,11.10
2016,06,16,00,13,11.10
2016,06,16,00,14,11.10
2016,06,16,00,15,11.00
2016,06,16,00,16,10.90
2016,06,16,00,17,10.90
2016,06,16,00,18,10.90
2016,06,16,00,19,10.90
2016,06,16,00,20,10.90
2016,06,16,00,21,10.90
2016,06,16,00,22,10.90
2016,06,16,00,23,10.90
2016,06,16,00,24,10.90
2016,06,16,00,25,10.90
2016,06,16,00,26,10.90
2016,06,16,00,27,10.90
2016,06,16,00,28,10.90
2016,06,16,00,29,10.90
2016,06,16,00,30,10.90
2016,06,16,00,31,10.90
2016,06,16,00,32,10.90
2016,06,16,00,33,10.90
2016,06,16,00,34,10.90
2016,06,16,00,35,10.90
2016,06,16,00,36,10.90
2016,06,16,00,37,10.90
2016,06,16,00,38,10.90
2016,06,16,00,39,10.90
2016,06,16,00,40,10.90
2016,06,16,00,41,10.90
2016,06,16,00,42,10.90
2016,06,16,00,43,10.90
2016,06,16,00,44,10.90
2016,06,16,00,45,10.90
2016,06,16,00,46,10.90
2016,06,16,00,47,11.00
2016,06,16,00,48,11.00
2016,06,16,00,49,11.10
2016,06,16,00,50,11.10
2016,06,16,00,51,11.10
2016,06,16,00,52,11.10
2016,06,16,00,53,11.10
2016,06,16,00,54,11.10
2016,06,16,00,55,11.10
2016,06,16,00,56,11.10
2016,06,16,00,57,11.10
2016,06,16,00,58,11.10
2016,06,16,00,59,11.10
2016,06,16,01,00,11.10
2016,06,16,01,01,11.10
2016,06,16,01,02,11.10
2016,06,16,01,03,11.10
2016,06,16,01,04,11.10
2016,06,16,01,05,11.10
2016,06,16,01,06,11.00
2016,06,16,01,07,10.90
2016,06,16,01,08,10.90
2016,06,16,01,09,10.90
2016,06,16,01,10,10.90
2016,06,16,01,11,10.90
2016,06,16,01,12,10.90
2016,06,16,01,13,10.90
2016,06,16,01,14,10.90
2016,06,16,01,15,10.80
2016,06,16,01,16,10.80
2016,06,16,01,17,10.70
2016,06,16,01,18,10.70
2016,06,16,01,19,10.70
2016,06,16,01,20,10.60
2016,06,16,01,21,10.60
2016,06,16,01,22,10.60
2016,06,16,01,23,10.60
2016,06,16,01,24,10.60
2016,06,16,01,25,10.60
2016,06,16,01,26,10.60
2016,06,16,01,27,10.60
2016,06,16,01,28,10.60
2016,06,16,01,29,10.40
2016,06,16,01,30,10.40
2016,06,16,01,31,10.40
2016,06,16,01,32,10.40
2016,06,16,01,33,10.40
2016,06,16,01,34,10.40
2016,06,16,01,35,10.40
2016,06,16,01,36,10.40
2016,06,16,01,37,10.40
2016,06,16,01,38,10.40
2016,06,16,01,39,10.40
2016,06,16,01,40,10.40
2016,06,16,01,41,10.40
2016,06,16,01,42,10.40
2016,06,16,01,43,10.40
2016,06,16,01,44,10.40
2016,06,16,01,45,10.40
2016,06,16,01,46,10.30
2016,06,16,01,47,10.30
2016,06,16,01,48,10.30
2016,06,16,01,49,10.30
2016,06,16,01,50,10.30
2016,06,16,01,51,10.30
2016,06,16,01,52,10.30
2016,06,16,01,53,10.30
2016,06,16,01,54,10.30
2016,06,16,01,55,10.30
2016,06,16,01,56,10.30
2016,06,16,01,57,10.30
2016,06,16,01,58,10.30
2016,06,16,01,59,10.30
2016,06,16,02,00,10.30
2016,06,16,02,01,10.30
2016,06,16,02,02,10.20
2016,06,16,02,03,10.20
2016,06,16,02,04,10.20
2016,06,16,02,05,10.20
2016,06,16,02,06,10.20
2016,06,16,02,07,10.20
2016,06,16,02,08,10.20
2016,06,16,02,09,10.20
2016,06,16,02,10,10.20
2016,06,16,02,11,10.20
2016,06,16,02,12,10.20
2016,06,16,02,13,10.20
2016,06,16,02,14,10.20
2016,06,16,02,15,10.10
2016,06,16,02,16,10.10
2016,06,16,02,17,10.10
2016,06,16,02,18,10.10
2016,06,16,02,19,10.10
2016,06,16,02,20,10.10
2016,06,16,02,21,10.10
2016,06,16,02,22,10.10
2016,06,16,02,23,10.10
2016,06,16,02,24,10.00
2016,06,16,02,25,9.90
2016,06,16,02,26,9.90
2016,06,16,02,27,9.90
2016,06,16,02,28,9.90
2016,06,16,02,29,9.90
2016,06,16,02,30,9.90
2016,06,16,02,31,9.90
2016,06,16,02,32,9.90
2016,06,16,02,33,9.90
2016,06,16,02,34,9.90
2016,06,16,02,35,9.90
2016,06,16,02,36,9.90
2016,06,16,02,37,9.80
2016,06,16,02,38,9.80
2016,06,16,02,39,9.80
2016,06,16,02,40,9.80
2016,06,16,02,41,9.80
2016,06,16,02,42,9.80
2016,06,16,02,43,9.70
2016,06,16,02,44,9.70
2016,06,16,02,45,9.70
2016,06,16,02,46,9.70
2016,06,16,02,47,9.70
2016,06,16,02,48,9.70
2016,06,16,02,49,9.70
2016,06,16,02,50,9.70
2016,06,16,02,51,9.70
2016,06,16,02,52,9.70
2016,06,16,02,53,9.70
2016,06,16,02,54,9.70
2016,06,16,02,55,9.60
2016,06,16,02,56,9.60
2016,06,16,02,57,9.60
2016,06,16,02,58,9.60
2016,06,16,02,59,9.60
2016,06,16,03,00,9.60
2016,06,16,03,01,9.60
2016,06,16,03,02,9.60
2016,06,16,03,03,9.60
2016,06,16,03,04,9.50
2016,06,16,03,05,9.50
2016,06,16,03,06,9.50
2016,06,16,03,07,9.50
2016,06,16,03,08,9.50
2016,06,16,03,09,9.40
2016,06,16,03,10,9.40
2016,06,16,03,11,9.40
2016,06,16,03,12,9.40
2016,06,16,03,13,9.40
2016,06,16,03,14,9.30
2016,06,16,03,15,9.30
2016,06,16,03,16,9.30
2016,06,16,03,17,9.30
2016,06,16,03,18,9.30
2016,06,16,03,19,9.30
2016,06,16,03,20,9.30
2016,06,16,03,21,9.20
2016,06,16,03,22,9.20
2016,06,16,03,23,9.20
2016,06,16,03,24,9.20
2016,06,16,03,25,9.20
2016,06,16,03,26,9.20
2016,06,16,03,27,9.20
2016,06,16,03,28,9.20
2016,06,16,03,29,9.20
2016,06,16,03,30,9.20
2016,06,16,03,31,9.20
2016,06,16,03,32,9.20
2016,06,16,03,33,9.10
2016,06,16,03,34,9.10
2016,06,16,03,35,9.10
2016,06,16,03,36,9.00
2016,06,16,03,37,9.00
2016,06,16,03,38,8.90
2016,06,16,03,39,8.90
2016,06,16,03,40,8.80
2016,06,16,03,41,8.80
2016,06,16,03,42,8.70
2016,06,16,03,43,8.70
2016,06,16,03,44,8.70
2016,06,16,03,45,8.70
2016,06,16,03,46,8.70
2016,06,16,03,47,8.70
2016,06,16,03,48,8.70
2016,06,16,03,49,8.60
2016,06,16,03,50,8.60
2016,06,16,03,51,8.60
2016,06,16,03,52,8.60
2016,06,16,03,53,8.60
2016,06,16,03,54,8.50
2016,06,16,03,55,8.50
2016,06,16,03,56,8.50
2016,06,16,03,57,8.50
2016,06,16,03,58,8.40
2016,06,16,03,59,8.40
2016,06,16,04,00,8.40
2016,06,16,04,01,8.40
2016,06,16,04,02,8.30
2016,06,16,04,03,8.30
2016,06,16,04,04,8.30
2016,06,16,04,05,8.30
2016,06,16,04,06,8.30
2016,06,16,04,07,8.20
2016,06,16,04,08,8.20
2016,06,16,04,09,8.20
2016,06,16,04,10,8.20
2016,06,16,04,11,8.20
2016,06,16,04,12,8.20
2016,06,16,04,13,8.20
2016,06,16,04,14,8.10
2016,06,16,04,15,8.10
2016,06,16,04,16,8.10
2016,06,16,04,17,8.00
2016,06,16,04,18,8.00
2016,06,16,04,19,8.00
2016,06,16,04,20,8.00
2016,06,16,04,21,8.00
2016,06,16,04,22,7.90
2016,06,16,04,23,7.90
2016,06,16,04,24,7.90
2016,06,16,04,25,7.90
2016,06,16,04,26,7.90
2016,06,16,04,27,7.90
2016,06,16,04,28,7.90
2016,06,16,04,29,7.90
2016,06,16,04,30,7.80
2016,06,16,04,31,7.80
2016,06,16,04,32,7.80
2016,06,16,04,33,7.80
2016,06,16,04,34,7.80
2016,06,16,04,35,7.80
2016,06,16,04,36,7.80
2016,06,16,04,37,7.80
2016,06,16,04,38,7.80
2016,06,16,04,39,7.80
2016,06,16,04,40,7.80
2016,06,16,04,41,7.80
2016,06,16,04,42,7.70
2016,06,16,04,43,7.70
2016,06,16,04,44,7.70
2016,06,16,04,45,7.70
2016,06,16,04,46,7.70
2016,06,16,04,47,7.70
2016,06,16,04,48,7.70
2016,06,16,04,49,7.70
2016,06,16,04,50,7.70
2016,06,16,04,51,7.70
2016,06,16,04,52,7.70
2016,06,16,04,53,7.70
2016,06,16,04,54,7.70
2016,06,16,04,55,7.70
2016,06,16,04,56,7.70
2016,06,16,04,57,7.70
2016,06,16,04,58,7.70
2016,06,16,04,59,7.70
2016,06,16,05,00,7.80
2016,06,16,05,01,7.80
2016,06,16,05,02,7.80
2016,06,16,05,03,7.80
2016,06,16,05,04,7.80
2016,06,16,05,05,7.80
2016,06,16,05,06,7.80
2016,06,16,05,07,7.80
2016,06,16,05,08,7.80
2016,06,16,05,09,7.80
2016,06,16,05,10,7.80
2016,06,16,05,11,7.80
2016,06,16,05,12,7.80
2016,06,16,05,13,7.70
2016,06,16,05,14,7.70
2016,06,16,05,15,7.70
2016,06,16,05,16,7.70
2016,06,16,05,17,7.70
2016,06,16,05,18,7.70
2016,06,16,05,19,7.70
2016,06,16,05,20,7.70
2016,06,16,05,21,7.70
2016,06,16,05,22,7.70
2016,06,16,05,23,7.70
2016,06,16,05,24,7.70
2016,06,16,05,25,7.70
2016,06,16,05,26,7.70
2016,06,16,05,27,7.70
2016,06,16,05,28,7.80
2016,06,16,05,29,7.80
2016,06,16,05,30,7.80
2016,06,16,05,31,7.80
2016,06,16,05,32,7.80
2016,06,16,05,33,7.80
2016,06,16,05,34,7.80
2016,06,16,05,35,7.80
2016,06,16,05,36,7.80
2016,06,16,05,37,7.80
2016,06,16,05,38,7.80
2016,06,16,05,39,7.80
2016,06,16,05,40,7.80
2016,06,16,05,41,7.80
2016,06,16,05,42,7.80
2016,06,16,05,43,7.70
2016,06,16,05,44,7.70
2016,06,16,05,45,7.70
2016,06,16,05,46,7.70
2016,06,16,05,47,7.70
2016,06,16,05,48,7.70
2016,06,16,05,49,7.70
2016,06,16,05,50,7.70
2016,06,16,05,51,7.70
2016,06,16,05,52,7.80
2016,06,16,05,53,7.80
2016,06,16,05,54,7.80
2016,06,16,05,55,7.80
2016,06,16,05,56,7.80
2016,06,16,05,57,7.80
2016,06,16,05,58,7.80
2016,06,16,05,59,7.80
2016,06,16,06,00,7.80
2016,06,16,06,01,7.80
2016,06,16,06,02,7.90
2016,06,16,06,03,7.90
2016,06,16,06,04,7.90
2016,06,16,06,05,7.90
2016,06,16,06,06,7.90
2016,06,16,06,07,8.00
2016,06,16,06,08,8.10
2016,06,16,06,09,8.10
2016,06,16,06,10,8.10
2016,06,16,06,11,8.10
2016,06,16,06,12,8.20
2016,06,16,06,13,8.20
2016,06,16,06,14,8.20
2016,06,16,06,15,8.20
2016,06,16,06,16,8.20
2016,06,16,06,17,8.30
2016,06,16,06,18,8.40
2016,06,16,06,19,8.40
2016,06,16,06,20,8.50
2016,06,16,06,21,8.70
2016,06,16,06,22,8.70
2016,06,16,06,23,8.80
2016,06,16,06,24,8.90
2016,06,16,06,25,9.00
2016,06,16,06,26,9.10
2016,06,16,06,27,9.20
2016,06,16,06,28,9.30
2016,06,16,06,29,9.40
2016,06,16,06,30,9.50
2016,06,16,06,31,9.60
2016,06,16,06,32,9.70
2016,06,16,06,33,9.70
2016,06,16,06,34,9.80
2016,06,16,06,35,9.80
2016,06,16,06,36,9.80
2016,06,16,06,37,9.90
2016,06,16,06,38,9.90
2016,06,16,06,39,9.90
2016,06,16,06,40,10.00
2016,06,16,06,41,10.10
2016,06,16,06,42,10.10
2016,06,16,06,43,10.10
2016,06,16,06,44,10.20
2016,06,16,06,45,10.30
2016,06,16,06,46,10.30
2016,06,16,06,47,10.30
2016,06,16,06,48,10.40
2016,06,16,06,49,10.40
2016,06,16,06,50,10.40
2016,06,16,06,51,10.50
2016,06,16,06,52,10.60
2016,06,16,06,53,10.60
2016,06,16,06,54,10.60
2016,06,16,06,55,10.70
2016,06,16,06,56,10.70
2016,06,16,06,57,10.70
2016,06,16,06,58,10.70
2016,06,16,06,59,10.70
2016,06,16,07,00,10.70
2016,06,16,07,01,10.70
2016,06,16,07,02,10.60
2016,06,16,07,03,10.70
2016,06,16,07,04,10.70
2016,06,16,07,05,10.80
2016,06,16,07,06,10.80
2016,06,16,07,07,10.80
2016,06,16,07,08,10.80
2016,06,16,07,09,10.80
2016,06,16,07,10,10.80
2016,06,16,07,11,10.80
2016,06,16,07,12,10.80
2016,06,16,07,13,10.80
2016,06,16,07,14,10.80
2016,06,16,07,15,10.90
2016,06,16,07,16,10.90
2016,06,16,07,17,10.90
2016,06,16,07,18,10.90
2016,06,16,07,19,10.90
2016,06,16,07,20,10.90
2016,06,16,07,21,10.90
2016,06,16,07,22,10.90
2016,06,16,07,23,10.90
2016,06,16,07,24,10.90
2016,06,16,07,25,10.90
2016,06,16,07,26,10.90
2016,06,16,07,27,11.00
2016,06,16,07,28,11.00
2016,06,16,07,29,10.90
2016,06,16,07,30,10.90
2016,06,16,07,31,10.90
2016,06,16,07,32,10.90
2016,06,16,07,33,10.90
2016,06,16,07,34,10.90
2016,06,16,07,35,10.90
2016,06,16,07,36,10.90
2016,06,16,07,37,10.90
2016,06,16,07,38,10.90
2016,06,16,07,39,10.90
2016,06,16,07,40,10.90
2016,06,16,07,41,10.90
2016,06,16,07,42,10.90
2016,06,16,07,43,10.90
2016,06,16,07,44,10.90
2016,06,16,07,45,10.90
2016,06,16,07,46,10.90
2016,06,16,07,47,10.90
2016,06,16,07,48,10.90
2016,06,16,07,49,10.90
2016,06,16,07,50,10.90
2016,06,16,07,51,10.90
2016,06,16,07,52,11.10
2016,06,16,07,53,11.00
2016,06,16,07,54,11.10
2016,06,16,07,55,11.10
2016,06,16,07,56,11.10
2016,06,16,07,57,11.10
2016,06,16,07,58,11.10
2016,06,16,07,59,11.10
2016,06,16,08,00,11.10
2016,06,16,08,01,11.10
2016,06,16,08,02,11.10
2016,06,16,08,03,11.10
2016,06,16,08,04,11.10
2016,06,16,08,05,11.10
2016,06,16,08,06,11.10
2016,06,16,08,07,11.10
2016,06,16,08,08,11.10
2016,06,16,08,09,11.10
2016,06,16,08,10,11.10
2016,06,16,08,11,11.10
2016,06,16,08,12,11.10
2016,06,16,08,13,11.10
2016,06,16,08,14,11.20
2016,06,16,08,15,11.20
2016,06,16,08,16,11.20
2016,06,16,08,17,11.30
2016,06,16,08,18,11.20
2016,06,16,08,19,11.20
2016,06,16,08,20,11.20
2016,06,16,08,21,11.20
2016,06,16,08,22,11.30
2016,06,16,08,23,11.30
2016,06,16,08,24,11.30
2016,06,16,08,25,11.30
2016,06,16,08,26,11.30
2016,06,16,08,27,11.40
2016,06,16,08,28,11.40
2016,06,16,08,29,11.40
2016,06,16,08,30,11.30
2016,06,16,08,31,11.40
2016,06,16,08,32,11.30
2016,06,16,08,33,11.30
2016,06,16,08,34,11.30
2016,06,16,08,35,11.30
2016,06,16,08,36,11.40
2016,06,16,08,37,11.40
2016,06,16,08,38,11.50
2016,06,16,08,39,11.60
2016,06,16,08,40,11.60
2016,06,16,08,41,11.60
2016,06,16,08,42,11.60
2016,06,16,08,43,11.60
2016,06,16,08,44,11.60
2016,06,16,08,45,11.60
2016,06,16,08,46,11.60
2016,06,16,08,47,11.60
2016,06,16,08,48,11.60
2016,06,16,08,49,11.60
2016,06,16,08,50,11.50
2016,06,16,08,51,11.40
2016,06,16,08,52,11.50
2016,06,16,08,53,11.50
2016,06,16,08,54,11.50
2016,06,16,08,55,11.60
2016,06,16,08,56,11.60
2016,06,16,08,57,11.60
2016,06,16,08,58,11.70
2016,06,16,08,59,11.70
2016,06,16,09,00,11.70
2016,06,16,09,01,11.70
2016,06,16,09,02,11.80
2016,06,16,09,03,11.80
2016,06,16,09,04,11.80
2016,06,16,09,05,11.80
2016,06,16,09,06,11.80
2016,06,16,09,07,11.80
2016,06,16,09,08,11.80
2016,06,16,09,09,11.90
2016,06,16,09,10,11.90
2016,06,16,09,11,11.90
2016,06,16,09,12,11.90
2016,06,16,09,13,11.90
2016,06,16,09,14,11.90
2016,06,16,09,15,11.90
2016,06,16,09,16,12.00
2016,06,16,09,17,12.00
2016,06,16,09,18,12.00
2016,06,16,09,19,12.00
2016,06,16,09,20,12.00
2016,06,16,09,21,12.00
2016,06,16,09,22,12.10
2016,06,16,09,23,12.10
2016,06,16,09,24,12.10
2016,06,16,09,25,12.10
2016,06,16,09,26,12.20
2016,06,16,09,27,12.20
2016,06,16,09,28,12.30
2016,06,16,09,29,12.30
2016,06,16,09,30,12.40
2016,06,16,09,31,12.50
2016,06,16,09,32,12.50
2016,06,16,09,33,12.50
2016,06,16,09,34,12.50
2016,06,16,09,35,12.60
2016,06,16,09,36,12.60
2016,06,16,09,37,12.60
2016,06,16,09,38,12.70
2016,06,16,09,39,12.80
2016,06,16,09,40,12.80
2016,06,16,09,41,12.80
2016,06,16,09,42,12.70
2016,06,16,09,43,12.60
2016,06,16,09,44,12.60
2016,06,16,09,45,12.60
2016,06,16,09,46,12.50
2016,06,16,09,47,12.50
2016,06,16,09,48,12.50
2016,06,16,09,49,12.40
2016,06,16,09,50,12.40
2016,06,16,09,51,12.50
2016,06,16,09,52,12.50
2016,06,16,09,53,12.50
2016,06,16,09,54,12.60
2016,06,16,09,55,12.50
2016,06,16,09,56,12.50
2016,06,16,09,57,12.40
2016,06,16,09,58,12.30
2016,06,16,09,59,12.40
2016,06,16,10,00,12.40
2016,06,16,10,01,12.50
2016,06,16,10,02,12.60
2016,06,16,10,03,12.80
2016,06,16,10,04,13.00
2016,06,16,10,05,13.00
2016,06,16,10,06,13.00
2016,06,16,10,07,12.90
2016,06,16,10,08,12.90
2016,06,16,10,09,12.90
2016,06,16,10,10,13.00
2016,06,16,10,11,13.00
2016,06,16,10,12,13.00
2016,06,16,10,13,13.20
2016,06,16,10,14,13.20
2016,06,16,10,15,13.20
2016,06,16,10,16,13.20
2016,06,16,10,17,13.10
2016,06,16,10,18,13.10
2016,06,16,10,19,13.00
2016,06,16,10,20,13.00
2016,06,16,10,21,13.00
2016,06,16,10,22,13.00
2016,06,16,10,23,13.00
2016,06,16,10,24,13.10
2016,06,16,10,25,13.10
2016,06,16,10,26,13.00
2016,06,16,10,27,12.90
2016,06,16,10,28,12.80
2016,06,16,10,29,12.80
2016,06,16,10,30,12.70
2016,06,16,10,31,12.60
2016,06,16,10,32,12.60
2016,06,16,10,33,12.70
2016,06,16,10,34,12.70
2016,06,16,10,35,12.70
2016,06,16,10,36,12.70
2016,06,16,10,37,12.70
2016,06,16,10,38,12.70
2016,06,16,10,39,12.70
2016,06,16,10,40,12.70
2016,06,16,10,41,12.80
2016,06,16,10,42,12.80
2016,06,16,10,43,12.80
2016,06,16,10,44,12.80
2016,06,16,10,45,12.70
2016,06,16,10,46,12.60
2016,06,16,10,47,12.60
2016,06,16,10,48,12.70
2016,06,16,10,49,12.70
2016,06,16,10,50,12.70
2016,06,16,10,51,12.80
2016,06,16,10,52,12.80
2016,06,16,10,53,12.80
2016,06,16,10,54,12.80
2016,06,16,10,55,12.80
2016,06,16,10,56,12.80
2016,06,16,10,57,12.90
2016,06,16,10,58,13.00
2016,06,16,10,59,13.10
2016,06,16,11,00,13.10
2016,06,16,11,01,13.20
2016,06,16,11,02,13.20
2016,06,16,11,03,13.20
2016,06,16,11,04,13.20
2016,06,16,11,05,13.30
2016,06,16,11,06,13.40
2016,06,16,11,07,13.50
2016,06,16,11,08,13.70
2016,06,16,11,09,13.80
2016,06,16,11,10,13.90
2016,06,16,11,11,14.00
2016,06,16,11,12,14.00
2016,06,16,11,13,14.10
2016,06,16,11,14,14.10
2016,06,16,11,15,14.20
2016,06,16,11,16,14.20
2016,06,16,11,17,14.30
2016,06,16,11,18,14.20
2016,06,16,11,19,14.10
2016,06,16,11,20,14.00
2016,06,16,11,21,13.90
2016,06,16,11,22,13.70
2016,06,16,11,23,13.70
2016,06,16,11,24,13.70
2016,06,16,11,25,13.60
2016,06,16,11,26,13.60
2016,06,16,11,27,13.50
2016,06,16,11,28,13.50
2016,06,16,11,29,13.70
2016,06,16,11,30,13.90
2016,06,16,11,31,14.00
2016,06,16,11,32,14.10
2016,06,16,11,33,14.10
2016,06,16,11,34,14.10
2016,06,16,11,35,14.10
2016,06,16,11,36,14.00
2016,06,16,11,37,13.90
2016,06,16,11,38,13.70
2016,06,16,11,39,13.70
2016,06,16,11,40,13.70
2016,06,16,11,41,13.60
2016,06,16,11,42,13.50
2016,06,16,11,43,13.40
2016,06,16,11,44,13.40
2016,06,16,11,45,13.30
2016,06,16,11,46,13.30
2016,06,16,11,47,13.30
2016,06,16,11,48,13.40
2016,06,16,11,49,13.50
2016,06,16,11,50,13.50
2016,06,16,11,51,13.60
2016,06,16,11,52,13.60
2016,06,16,11,53,13.70
2016,06,16,11,54,13.90
2016,06,16,11,55,14.00
2016,06,16,11,56,14.10
2016,06,16,11,57,14.20
2016,06,16,11,58,14.40
2016,06,16,11,59,14.50
2016,06,16,12,00,14.50
2016,06,16,12,01,14.40
2016,06,16,12,02,14.20
2016,06,16,12,03,14.10
2016,06,16,12,04,14.10
2016,06,16,12,05,14.00
2016,06,16,12,06,14.10
2016,06,16,12,07,14.20
2016,06,16,12,08,14.20
2016,06,16,12,09,14.20
2016,06,16,12,10,14.10
2016,06,16,12,11,13.90
2016,06,16,12,12,13.90
2016,06,16,12,13,14.10
2016,06,16,12,14,14.30
2016,06,16,12,15,14.50
2016,06,16,12,16,14.50
2016,06,16,12,17,14.40
2016,06,16,12,18,14.40
2016,06,16,12,19,14.40
2016,06,16,12,20,14.20
2016,06,16,12,21,14.20
2016,06,16,12,22,14.20
2016,06,16,12,23,14.20
2016,06,16,12,24,14.10
2016,06,16,12,25,14.10
2016,06,16,12,26,14.00
2016,06,16,12,27,14.10
2016,06,16,12,28,14.20
2016,06,16,12,29,14.20
2016,06,16,12,30,14.20
2016,06,16,12,31,14.20
2016,06,16,12,32,14.10
2016,06,16,12,33,14.10
2016,06,16,12,34,14.10
2016,06,16,12,35,14.20
2016,06,16,12,36,14.10
2016,06,16,12,37,14.00
2016,06,16,12,38,14.00
2016,06,16,12,39,14.00
2016,06,16,12,40,14.20
2016,06,16,12,41,14.20
2016,06,16,12,42,14.20
2016,06,16,12,43,14.20
2016,06,16,12,44,14.20
2016,06,16,12,45,14.30
2016,06,16,12,46,14.40
2016,06,16,12,47,14.60
2016,06,16,12,48,14.80
2016,06,16,12,49,15.00
2016,06,16,12,50,15.20
2016,06,16,12,51,15.30
2016,06,16,12,52,15.30
2016,06,16,12,53,15.20
2016,06,16,12,54,15.20
2016,06,16,12,55,15.10
2016,06,16,12,56,15.10
2016,06,16,12,57,15.00
2016,06,16,12,58,14.90
2016,06,16,12,59,14.80
2016,06,16,13,00,14.90
2016,06,16,13,01,14.90
2016,06,16,13,02,14.70
2016,06,16,13,03,14.70
2016,06,16,13,04,14.70
2016,06,16,13,05,14.80
2016,06,16,13,06,14.90
2016,06,16,13,07,15.10
2016,06,16,13,08,15.20
2016,06,16,13,09,15.20
2016,06,16,13,10,15.20
2016,06,16,13,11,15.10
2016,06,16,13,12,15.00
2016,06,16,13,13,15.10
2016,06,16,13,14,15.10
2016,06,16,13,15,15.00
2016,06,16,13,16,14.90
2016,06,16,13,17,14.80
2016,06,16,13,18,14.70
2016,06,16,13,19,14.60
2016,06,16,13,20,14.60
2016,06,16,13,21,14.50
2016,06,16,13,22,14.40
2016,06,16,13,23,14.50
2016,06,16,13,24,14.60
2016,06,16,13,25,14.70
2016,06,16,13,26,14.80
2016,06,16,13,27,14.70
2016,06,16,13,28,14.80
2016,06,16,13,29,14.80
2016,06,16,13,30,14.80
2016,06,16,13,31,14.80
2016,06,16,13,32,14.80
2016,06,16,13,33,14.80
2016,06,16,13,34,14.80
2016,06,16,13,35,14.80
2016,06,16,13,36,14.80
2016,06,16,13,37,14.70
2016,06,16,13,38,14.80
2016,06,16,13,39,14.80
2016,06,16,13,40,14.80
2016,06,16,13,41,14.80
2016,06,16,13,42,14.90
2016,06,16,13,43,14.80
2016,06,16,13,44,14.60
2016,06,16,13,45,14.50
2016,06,16,13,46,14.60
2016,06,16,13,47,14.60
2016,06,16,13,48,14.60
2016,06,16,13,49,14.70
2016,06,16,13,50,14.70
2016,06,16,13,51,14.70
2016,06,16,13,52,14.80
2016,06,16,13,53,14.90
2016,06,16,13,54,15.00
2016,06,16,13,55,15.10
2016,06,16,13,56,15.30
2016,06,16,13,57,15.20
2016,06,16,13,58,15.10
2016,06,16,13,59,15.10
2016,06,16,14,00,15.10
2016,06,16,14,01,15.00
2016,06,16,14,02,15.00
2016,06,16,14,03,15.00
2016,06,16,14,04,15.00
2016,06,16,14,05,15.00
2016,06,16,14,06,14.90
2016,06,16,14,07,14.80
2016,06,16,14,08,14.80
2016,06,16,14,09,14.70
2016,06,16,14,10,14.70
2016,06,16,14,11,14.80
2016,06,16,14,12,14.80
2016,06,16,14,13,14.90
2016,06,16,14,14,14.90
2016,06,16,14,15,14.80
2016,06,16,14,16,14.70
2016,06,16,14,17,14.70
2016,06,16,14,18,14.70
2016,06,16,14,19,14.60
2016,06,16,14,20,14.50
2016,06,16,14,21,14.30
2016,06,16,14,22,14.20
2016,06,16,14,23,14.20
2016,06,16,14,24,14.20
2016,06,16,14,25,14.20
2016,06,16,14,26,14.20
2016,06,16,14,27,14.10
2016,06,16,14,28,14.10
2016,06,16,14,29,14.20
2016,06,16,14,30,14.20
2016,06,16,14,31,14.30
2016,06,16,14,32,14.30
2016,06,16,14,33,14.20
2016,06,16,14,34,14.20
2016,06,16,14,35,14.20
2016,06,16,14,36,14.30
2016,06,16,14,37,14.20
2016,06,16,14,38,14.20
2016,06,16,14,39,14.20
2016,06,16,14,40,14.10
2016,06,16,14,41,14.10
2016,06,16,14,42,14.10
2016,06,16,14,43,14.00
2016,06,16,14,44,13.90
2016,06,16,14,45,13.90
2016,06,16,14,46,13.90
2016,06,16,14,47,13.90
2016,06,16,14,48,13.90
2016,06,16,14,49,13.90
2016,06,16,14,50,13.90
2016,06,16,14,51,13.70
2016,06,16,14,52,13.70
2016,06,16,14,53,13.70
2016,06,16,14,54,13.70
2016,06,16,14,55,13.60
2016,06,16,14,56,13.70
2016,06,16,14,57,13.70
2016,06,16,14,58,13.70
2016,06,16,14,59,13.70
2016,06,16,15,00,13.70
2016,06,16,15,01,13.60
2016,06,16,15,02,13.60
2016,06,16,15,03,13.70
2016,06,16,15,04,13.80
2016,06,16,15,05,13.90
2016,06,16,15,06,13.80
2016,06,16,15,07,13.80
2016,06,16,15,08,13.80
2016,06,16,15,09,13.90
2016,06,16,15,10,14.00
2016,06,16,15,11,14.00
2016,06,16,15,12,13.90
2016,06,16,15,13,13.90
2016,06,16,15,14,13.90
2016,06,16,15,15,14.00
2016,06,16,15,16,14.00
2016,06,16,15,17,14.00
2016,06,16,15,18,14.00
2016,06,16,15,19,13.90
2016,06,16,15,20,13.70
2016,06,16,15,21,13.70
2016,06,16,15,22,13.70
2016,06,16,15,23,13.70
2016,06,16,15,24,13.70
2016,06,16,15,25,13.90
2016,06,16,15,26,14.00
2016,06,16,15,27,13.90
2016,06,16,15,28,13.90
2016,06,16,15,29,14.00
2016,06,16,15,30,14.00
2016,06,16,15,31,14.00
2016,06,16,15,32,14.00
2016,06,16,15,33,14.00
2016,06,16,15,34,14.00
2016,06,16,15,35,14.10
2016,06,16,15,36,14.10
2016,06,16,15,37,14.20
2016,06,16,15,38,14.10
2016,06,16,15,39,14.10
2016,06,16,15,40,14.00
2016,06,16,15,41,14.00
2016,06,16,15,42,14.00
2016,06,16,15,43,14.00
2016,06,16,15,44,14.10
2016,06,16,15,45,14.10
2016,06,16,15,46,14.10
2016,06,16,15,47,14.20
2016,06,16,15,48,14.20
2016,06,16,15,49,14.20
2016,06,16,15,50,14.30
2016,06,16,15,51,14.30
2016,06,16,15,52,14.30
2016,06,16,15,53,14.20
2016,06,16,15,54,14.00
2016,06,16,15,55,13.90
2016,06,16,15,56,13.80
2016,06,16,15,57,13.70
2016,06,16,15,58,13.70
2016,06,16,15,59,13.80
2016,06,16,16,00,13.80
2016,06,16,16,01,13.80
2016,06,16,16,02,14.00
2016,06,16,16,03,14.10
2016,06,16,16,04,14.20
2016,06,16,16,05,14.10
2016,06,16,16,06,14.00
2016,06,16,16,07,14.00
2016,06,16,16,08,14.00
2016,06,16,16,09,14.00
2016,06,16,16,10,14.10
2016,06,16,16,11,14.10
2016,06,16,16,12,14.10
2016,06,16,16,13,14.20
2016,06,16,16,14,14.30
2016,06,16,16,15,14.40
2016,06,16,16,16,14.50
2016,06,16,16,17,14.50
2016,06,16,16,18,14.50
2016,06,16,16,19,14.50
2016,06,16,16,20,14.40
2016,06,16,16,21,14.30
2016,06,16,16,22,14.30
2016,06,16,16,23,14.20
2016,06,16,16,24,14.20
2016,06,16,16,25,14.30
2016,06,16,16,26,14.40
2016,06,16,16,27,14.40
2016,06,16,16,28,14.40
2016,06,16,16,29,14.40
2016,06,16,16,30,14.40
2016,06,16,16,31,14.30
2016,06,16,16,32,14.20
2016,06,16,16,33,14.20
2016,06,16,16,34,14.20
2016,06,16,16,35,14.10
2016,06,16,16,36,14.00
2016,06,16,16,37,13.90
2016,06,16,16,38,13.80
2016,06,16,16,39,13.80
2016,06,16,16,40,13.70
2016,06,16,16,41,13.70
2016,06,16,16,42,13.70
2016,06,16,16,43,13.60
2016,06,16,16,44,13.60
2016,06,16,16,45,13.60
2016,06,16,16,46,13.60
2016,06,16,16,47,13.60
2016,06,16,16,48,13.60
2016,06,16,16,49,13.60
2016,06,16,16,50,13.60
2016,06,16,16,51,13.70
2016,06,16,16,52,13.70
2016,06,16,16,53,13.70
2016,06,16,16,54,13.70
2016,06,16,16,55,13.80
2016,06,16,16,56,13.80
2016,06,16,16,57,13.80
2016,06,16,16,58,13.70
2016,06,16,16,59,13.70
2016,06,16,17,00,13.70
2016,06,16,17,01,13.80
2016,06,16,17,02,13.80
2016,06,16,17,03,13.90
2016,06,16,17,04,13.80
2016,06,16,17,05,13.90
2016,06,16,17,06,13.90
2016,06,16,17,07,13.90
2016,06,16,17,08,13.90
2016,06,16,17,09,13.90
2016,06,16,17,10,13.90
2016,06,16,17,11,13.90
2016,06,16,17,12,13.80
2016,06,16,17,13,13.70
2016,06,16,17,14,13.70
2016,06,16,17,15,13.80
2016,06,16,17,16,13.90
2016,06,16,17,17,13.90
2016,06,16,17,18,13.90
2016,06,16,17,19,14.00
2016,06,16,17,20,13.90
2016,06,16,17,21,13.90
2016,06,16,17,22,13.90
2016,06,16,17,23,13.90
2016,06,16,17,24,13.90
2016,06,16,17,25,13.90
2016,06,16,17,26,13.90
2016,06,16,17,27,13.90
2016,06,16,17,28,13.90
2016,06,16,17,29,13.90
2016,06,16,17,30,13.90